When you browse on this site, cookies collect data to enhance your experience and personalize the content and advertising you see.
Visit our Privacy Policy to learn more. By continuing to use the site, you agree to this use of cookies and data.

Meteo pe oră la Dziembowko

Astăzi, 19 Septembrie, Sâmbătă

Timp Temperatura Precipitaţii Vânt Presiune Umiditate
00:00 +11°C° 0 mm 1 m/s 764 mmHg 65%
01:00 +9°C° 0 mm 0 m/s 764 mmHg 67%
02:00 +9°C° 0 mm 0 m/s 763 mmHg 68%
03:00 +9°C° 0 mm 0 m/s 763 mmHg 69%
04:00 +8°C° 0 mm 0 m/s 763 mmHg 70%
05:00 +9°C° 0 mm 0 m/s 763 mmHg 69%
06:00 +10°C° 0 mm 0 m/s 763 mmHg 67%
07:00 +11°C° 0 mm 0 m/s 763 mmHg 66%
08:00 +12°C° 0 mm 0 m/s 763 mmHg 59%
09:00 +14°C° 0 mm 0 m/s 763 mmHg 53%
10:00 +16°C° 0 mm 0 m/s 763 mmHg 47%
11:00 +17°C° 0 mm 0 m/s 762 mmHg 43%
12:00 +18°C° 0 mm 0 m/s 762 mmHg 40%
13:00 +19°C° 0 mm 0 m/s 762 mmHg 36%
14:00 +19°C° 0 mm 0 m/s 762 mmHg 37%
15:00 +21°C° 0 mm 1 m/s 761 mmHg 38%
16:00 +21°C° 0 mm 1 m/s 761 mmHg 38%
17:00 +19°C° 0 mm 1 m/s 761 mmHg 42%
18:00 +16°C° 0 mm 1 m/s 761 mmHg 45%
19:00 +15°C° 0 mm 1 m/s 760 mmHg 48%
20:00 +14°C° 0 mm 1 m/s 761 mmHg 49%
21:00 +14°C° 0 mm 1 m/s 761 mmHg 50%
22:00 +13°C° 0 mm 1 m/s 761 mmHg 51%
23:00 +13°C° 0 mm 1 m/s 761 mmHg 52%

Mâine, 20 Septembrie, Duminică

Timp Temperatura Precipitaţii Vânt Presiune Umiditate
00:00 +13°C° 0 mm 1 m/s 761 mmHg 53%
01:00 +12°C° 0 mm 2 m/s 761 mmHg 54%
02:00 +12°C° 0 mm 2 m/s 760 mmHg 55%
03:00 +12°C° 0 mm 2 m/s 760 mmHg 56%
04:00 +10°C° 0 mm 2 m/s 760 mmHg 57%
05:00 +12°C° 0 mm 2 m/s 760 mmHg 57%
06:00 +12°C° 0 mm 2 m/s 760 mmHg 58%
07:00 +12°C° 0 mm 2 m/s 760 mmHg 59%
08:00 +14°C° 0 mm 2 m/s 760 mmHg 54%
09:00 +16°C° 0 mm 3 m/s 760 mmHg 49%
10:00 +18°C° 0 mm 3 m/s 760 mmHg 45%
11:00 +19°C° 0 mm 3 m/s 760 mmHg 42%
12:00 +20°C° 0 mm 3 m/s 759 mmHg 39%
13:00 +21°C° 0 mm 3 m/s 759 mmHg 36%
14:00 +21°C° 0 mm 3 m/s 759 mmHg 37%
15:00 +20°C° 0 mm 3 m/s 759 mmHg 39%
16:00 +20°C° 0 mm 2 m/s 758 mmHg 40%
17:00 +18°C° 0 mm 2 m/s 758 mmHg 45%
18:00 +17°C° 0 mm 2 m/s 758 mmHg 50%
19:00 +15°C° 0 mm 2 m/s 758 mmHg 55%
20:00 +14°C° 0 mm 2 m/s 758 mmHg 56%
21:00 +13°C° 0 mm 2 m/s 759 mmHg 58%
22:00 +13°C° 0 mm 2 m/s 759 mmHg 60%
23:00 +12°C° 0 mm 2 m/s 758 mmHg 61%

Poimâine, 21 Septembrie, Luni

Timp Temperatura Precipitaţii Vânt Presiune Umiditate
00:00 +12°C° 0 mm 2 m/s 758 mmHg 63%
01:00 +12°C° 0 mm 2 m/s 758 mmHg 64%
02:00 +10°C° 0 mm 2 m/s 758 mmHg 65%
03:00 +10°C° 0 mm 2 m/s 758 mmHg 67%
04:00 +10°C° 0 mm 2 m/s 758 mmHg 68%
05:00 +10°C° 0 mm 2 m/s 758 mmHg 68%
06:00 +12°C° 0 mm 2 m/s 758 mmHg 68%
07:00 +12°C° 0 mm 2 m/s 758 mmHg 67%
08:00 +14°C° 0 mm 2 m/s 758 mmHg 62%
09:00 +17°C° 0 mm 2 m/s 758 mmHg 57%
10:00 +19°C° 0 mm 2 m/s 758 mmHg 52%
11:00 +20°C° 0 mm 2 m/s 757 mmHg 49%
12:00 +21°C° 0 mm 2 m/s 757 mmHg 46%
13:00 +24°C° 0 mm 2 m/s 757 mmHg 43%
14:00 +24°C° 0 mm 2 m/s 756 mmHg 43%
15:00 +24°C° 0 mm 1 m/s 756 mmHg 43%
16:00 +24°C° 0 mm 1 m/s 756 mmHg 44%
17:00 +22°C° 0 mm 1 m/s 755 mmHg 49%
18:00 +20°C° 0 mm 1 m/s 755 mmHg 55%
19:00 +18°C° 0 mm 1 m/s 755 mmHg 61%
20:00 +18°C° 0 mm 1 m/s 755 mmHg 63%
21:00 +18°C° 0 mm 1 m/s 755 mmHg 64%
22:00 +16°C° 0 mm 1 m/s 755 mmHg 66%
23:00 +16°C° 0 mm 1 m/s 755 mmHg 67%

22 Septembrie, Marţi

Timp Temperatura Precipitaţii Vânt Presiune Umiditate
00:00 +16°C° 0 mm 1 m/s 755 mmHg 69%
01:00 +15°C° 0 mm 1 m/s 754 mmHg 70%
02:00 +15°C° 0 mm 1 m/s 754 mmHg 72%
03:00 +15°C° 0 mm 2 m/s 754 mmHg 74%
04:00 +14°C° 0 mm 2 m/s 753 mmHg 75%
05:00 +15°C° 0 mm 2 m/s 753 mmHg 74%
06:00 +15°C° 0 mm 2 m/s 753 mmHg 73%
07:00 +15°C° 0 mm 1 m/s 753 mmHg 72%
08:00 +17°C° 0 mm 2 m/s 753 mmHg 64%
09:00 +20°C° 0 mm 2 m/s 753 mmHg 56%
10:00 +22°C° 0 mm 3 m/s 753 mmHg 48%
11:00 +24°C° 0 mm 3 m/s 752 mmHg 46%
12:00 +25°C° 0 mm 4 m/s 752 mmHg 43%
13:00 +26°C° 0 mm 4 m/s 751 mmHg 40%
14:00 +26°C° 0 mm 4 m/s 751 mmHg 42%
15:00 +26°C° 0 mm 3 m/s 751 mmHg 43%
16:00 +26°C° 0 mm 3 m/s 750 mmHg 45%
17:00 +24°C° 0 mm 3 m/s 750 mmHg 50%
18:00 +21°C° 0 mm 2 m/s 750 mmHg 54%
19:00 +19°C° 0 mm 2 m/s 750 mmHg 59%
20:00 +19°C° 0 mm 2 m/s 749 mmHg 62%
21:00 +18°C° 0 mm 2 m/s 749 mmHg 64%
22:00 +18°C° 0 mm 2 m/s 749 mmHg 66%
23:00 +17°C° 0 mm 2 m/s 749 mmHg 68%

23 Septembrie, Miercuri

Timp Temperatura Precipitaţii Vânt Presiune Umiditate
00:00 +17°C° 0 mm 2 m/s 749 mmHg 70%
01:00 +17°C° 0 mm 2 m/s 748 mmHg 71%
02:00 +16°C° 0 mm 2 m/s 748 mmHg 74%
03:00 +16°C° 0 mm 2 m/s 748 mmHg 76%
04:00 +16°C° 0 mm 2 m/s 748 mmHg 79%
05:00 +16°C° 0 mm 2 m/s 747 mmHg 77%
06:00 +18°C° 0 mm 1 m/s 747 mmHg 76%
07:00 +18°C° 0 mm 1 m/s 747 mmHg 75%
08:00 +19°C° 0 mm 2 m/s 747 mmHg 69%
09:00 +20°C° 0 mm 2 m/s 747 mmHg 63%
10:00 +23°C° 0 mm 2 m/s 747 mmHg 57%
11:00 +24°C° 0 mm 2 m/s 747 mmHg 55%
12:00 +25°C° 0 mm 3 m/s 747 mmHg 53%
13:00 +26°C° 0 mm 3 m/s 746 mmHg 51%
14:00 +26°C° 0 mm 3 m/s 746 mmHg 51%
15:00 +26°C° 0 mm 3 m/s 746 mmHg 52%
16:00 +25°C° 0 mm 3 m/s 746 mmHg 52%
17:00 +22°C° 0 mm 3 m/s 745 mmHg 55%
18:00 +21°C° 0 mm 2 m/s 745 mmHg 58%
19:00 +19°C° 0 mm 2 m/s 745 mmHg 61%
20:00 +19°C° 0 mm 2 m/s 745 mmHg 61%
21:00 +18°C° 0 mm 3 m/s 745 mmHg 61%
22:00 +18°C° 0 mm 3 m/s 745 mmHg 61%
23:00 +18°C° 0 mm 3 m/s 746 mmHg 63%

24 Septembrie, Joi

Timp Temperatura Precipitaţii Vânt Presiune Umiditate
00:00 +18°C° 0 mm 3 m/s 746 mmHg 65%
01:00 +18°C° 0 mm 3 m/s 746 mmHg 67%
02:00 +17°C° 0 mm 3 m/s 746 mmHg 73%
03:00 +17°C° 0 mm 3 m/s 746 mmHg 80%
04:00 +16°C° 0 mm 3 m/s 746 mmHg 86%
05:00 +16°C° 0 mm 2 m/s 747 mmHg 87%
06:00 +16°C° 0 mm 2 m/s 747 mmHg 88%
07:00 +16°C° 0 mm 2 m/s 748 mmHg 89%
08:00 +18°C° 0 mm 2 m/s 748 mmHg 81%
09:00 +19°C° 0 mm 2 m/s 748 mmHg 74%
10:00 +20°C° 0 mm 2 m/s 748 mmHg 66%
11:00 +21°C° 0 mm 2 m/s 748 mmHg 62%
12:00 +23°C° 0 mm 2 m/s 748 mmHg 58%
13:00 +24°C° 0 mm 2 m/s 748 mmHg 55%
14:00 +24°C° 0 mm 2 m/s 748 mmHg 55%
15:00 +24°C° 0 mm 2 m/s 747 mmHg 55%
16:00 +24°C° 0 mm 3 m/s 747 mmHg 55%
17:00 +22°C° 0 mm 3 m/s 747 mmHg 60%
18:00 +21°C° 0 mm 2 m/s 747 mmHg 64%
19:00 +19°C° 0 mm 2 m/s 746 mmHg 68%
20:00 +19°C° 0 mm 3 m/s 746 mmHg 71%
21:00 +18°C° 0 mm 3 m/s 746 mmHg 74%
22:00 +18°C° 0 mm 3 m/s 746 mmHg 77%
23:00 +17°C° 0 mm 3 m/s 746 mmHg 80%
Arată mai mult